GW3577 Weather Reports


Display with metric or nautical units.
time (UTC)temp
F
wind
direction
speed
MPH
gust
MPH
rain 1hr
in
rain 24hr
in
rain mn
in
humidity
%
barometer
mb
20260831082448 67 14 0.0 0.0 0.00 0.00 0.00 97 1021.0
20260831081942 67 14 0.0 0.0 0.00 0.00 0.00 98 1021.0
20260831081439 67 14 0.0 0.0 0.00 0.00 0.00 98 1021.0
20260831080934 67 14 0.0 0.0 0.00 0.00 0.00 98 1021.0
20260831080429 67 14 0.0 0.0 0.00 0.00 0.00 98 1021.0
20260831075924 67 14 0.0 0.0 0.00 0.00 0.00 98 1021.0
20260831075420 67 14 0.0 0.0 0.00 0.00 0.00 97 1021.0
20260831074915 67 14 0.0 0.0 0.00 0.00 0.00 97 1021.0
20260831074409 67 14 0.0 0.0 0.00 0.00 0.00 97 1021.0
20260831073903 68 14 0.0 0.0 0.00 0.00 0.00 97 1021.0
20260831073403 67 14 0.0 0.0 0.00 0.00 0.00 97 1021.0
20260831072858 68 14 0.0 0.0 0.00 0.00 0.00 96 1021.0
20260831072354 68 14 0.0 0.0 0.00 0.00 0.00 96 1020.6
20260831071850 68 14 0.0 0.0 0.00 0.00 0.00 96 1021.0
20260831071349 68 14 0.0 0.0 0.00 0.00 0.00 96 1021.0
20260831070843 68 14 0.0 0.0 0.00 0.00 0.00 96 1021.0
20260831070342 68 14 0.0 0.0 0.00 0.00 0.00 96 1020.6
20260831065842 68 14 0.0 0.0 0.00 0.00 0.00 96 1021.0
20260831065339 68 14 0.0 0.0 0.00 0.00 0.00 96 1020.6
20260831064835 68 14 0.0 0.0 0.00 0.00 0.00 96 1021.0
20260831064330 68 14 0.0 0.0 0.00 0.00 0.00 96 1021.0
20260831063826 68 14 0.0 0.0 0.00 0.00 0.00 96 1021.0
20260831063321 68 14 0.0 0.0 0.00 0.00 0.00 96 1021.0
20260831062820 68 14 0.0 0.0 0.00 0.00 0.00 96 1021.0
20260831062315 68 14 0.0 0.0 0.00 0.00 0.00 96 1021.0
20260831061815 68 14 0.0 0.0 0.00 0.00 0.00 96 1021.0
20260831061314 68 14 0.0 0.0 0.00 0.00 0.00 96 1021.0
20260831060810 68 14 0.0 0.0 0.00 0.00 0.00 96 1021.0
20260831060305 68 14 0.0 0.0 0.00 0.00 0.00 96 1021.0
20260831055804 68 14 0.0 0.0 0.00 0.00 0.00 96 1021.0
20260831055300 68 14 0.0 0.0 0.00 0.00 0.00 95 1021.0
20260831054800 68 14 0.0 0.0 0.00 0.00 0.00 95 1021.0
20260831054255 68 14 0.0 0.0 0.00 0.00 0.00 94 1021.3
20260831053754 69 14 0.0 0.0 0.00 0.00 0.00 94 1021.3
20260831053253 69 14 0.0 0.0 0.00 0.00 0.00 94 1021.3
20260831052748 69 14 0.0 0.0 0.00 0.00 0.00 94 1021.3
20260831052247 69 14 0.0 0.0 0.00 0.00 0.00 94 1021.3
20260831051745 69 14 0.0 0.0 0.00 0.00 0.00 93 1021.3
20260831051244 69 14 0.0 0.0 0.00 0.00 0.00 94 1021.3
20260831050739 69 14 0.0 0.0 0.00 0.00 0.00 92 1021.3
20260831050237 70 14 0.0 0.0 0.00 0.00 0.00 91 1021.3
20260831045732 70 14 0.0 0.0 0.00 0.00 0.00 92 1021.3
20260831045227 70 14 0.0 0.0 0.00 0.00 0.00 91 1021.3
20260831044722 71 14 0.0 0.0 0.00 0.00 0.00 90 1021.7
20260831044216 71 14 1.0 3.0 0.00 0.00 0.00 91 1021.7
20260831043713 70 14 0.0 0.0 0.00 0.00 0.00 91 1021.7
20260831043207 70 14 0.0 0.0 0.00 0.00 0.00 91 1021.7
20260831042706 70 14 0.0 0.0 0.00 0.00 0.00 92 1021.7
20260831042201 69 14 2.0 3.0 0.00 0.00 0.00 92 1021.7
20260831041656 70 14 0.0 0.0 0.00 0.00 0.00 91 1021.7
20260831041150 70 14 0.0 0.0 0.00 0.00 0.00 91 1021.7
20260831040645 70 14 0.0 0.0 0.00 0.00 0.00 92 1021.7
20260831040144 70 14 0.0 1.0 0.00 0.00 0.00 92 1021.7
20260831035644 70 14 0.0 0.0 0.00 0.00 0.00 91 1021.7
20260831035143 70 14 0.0 0.0 0.00 0.00 0.00 92 1021.7
20260831034642 71 14 0.0 0.0 0.00 0.00 0.00 91 1022.0
20260831034138 71 14 0.0 0.0 0.00 0.00 0.00 90 1021.7
20260831033633 71 14 0.0 0.0 0.00 0.00 0.00 89 1022.0
20260831033128 71 14 0.0 0.0 0.00 0.00 0.00 89 1022.0
20260831032628 71 14 0.0 0.0 0.00 0.00 0.00 88 1022.0
20260831032124 72 14 0.0 0.0 0.00 0.00 0.00 87 1021.7
20260831031618 72 14 0.0 0.0 0.00 0.00 0.00 86 1021.7
20260831031117 73 14 0.0 0.0 0.00 0.00 0.00 85 1021.7
20260831030616 73 14 0.0 0.0 0.00 0.00 0.00 85 1021.7
20260831030115 73 14 0.0 0.0 0.00 0.00 0.00 85 1021.7
20260831025614 73 14 0.0 0.0 0.00 0.00 0.00 86 1021.7
20260831025109 73 14 0.0 0.0 0.00 0.00 0.00 87 1021.7
20260831024606 73 14 0.0 0.0 0.00 0.00 0.00 86 1021.7
20260831024104 73 14 0.0 0.0 0.00 0.00 0.00 87 1021.7
20260831023602 74 14 0.0 0.0 0.00 0.00 0.00 85 1021.7
20260831023057 74 14 0.0 0.0 0.00 0.00 0.00 85 1021.7
20260831022556 75 14 0.0 0.0 0.00 0.00 0.00 84 1021.7
20260831022052 75 14 0.0 0.0 0.00 0.00 0.00 80 1021.7
20260831021550 75 14 0.0 0.0 0.00 0.00 0.00 82 1021.7
20260831021047 75 14 0.0 0.0 0.00 0.00 0.00 82 1021.7
20260831020542 75 14 0.0 3.0 0.00 0.00 0.00 81 1021.7
20260831020037 76 14 0.0 0.0 0.00 0.00 0.00 79 1021.7
20260831015532 77 14 0.0 0.0 0.00 0.00 0.00 77 1021.7
20260831015027 78 14 0.0 0.0 0.00 0.00 0.00 72 1021.7
20260831014522 78 311 0.0 0.0 0.00 0.00 0.00 70 1021.7
20260831014018 78 311 0.0 0.0 0.00 0.00 0.00 68 1021.7
20260831013514 79 311 0.0 0.0 0.00 0.00 0.00 68 1021.7
20260831013013 79 311 0.0 0.0 0.00 0.00 0.00 69 1021.3
20260831012508 79 311 0.0 0.0 0.00 0.00 0.00 69 1021.3
20260831012008 79 311 0.0 0.0 0.00 0.00 0.00 70 1021.3
20260831011502 80 338 1.0 4.0 0.00 0.00 0.00 66 1021.3
20260831010959 80 8 6.0 7.0 0.00 0.00 0.00 66 1021.3
20260831010458 80 51 0.0 3.0 0.00 0.00 0.00 67 1021.3
20260831005954 80 71 4.0 6.0 0.00 0.00 0.00 70 1021.0
20260831005450 81 82 3.0 5.0 0.00 0.00 0.00 67 1021.3
20260831004949 81 338 0.0 0.0 0.00 0.00 0.00 66 1021.0
20260831004446 81 338 3.0 5.0 0.00 0.00 0.00 66 1021.0
20260831003941 81 333 5.0 6.0 0.00 0.00 0.00 67 1021.0
20260831003437 80 330 7.0 11.0 0.00 0.00 0.00 68 1021.0
20260831002931 79 310 7.0 11.0 0.00 0.00 0.00 73 1021.0
20260831002430 79 319 3.0 5.0 0.00 0.00 0.00 76 1021.0
20260831001925 79 277 2.0 3.0 0.00 0.00 0.00 75 1021.0
20260831001420 79 277 2.0 4.0 0.00 0.00 0.00 75 1020.6
20260831000918 79 308 5.0 7.0 0.00 0.00 0.00 74 1020.6
20260831000413 80 309 4.0 5.0 0.00 0.00 0.00 74 1020.6
20260830235911 79 309 4.0 6.0 0.00 0.00 0.00 75 1020.6
20260830235406 79 309 4.0 5.0 0.00 0.00 0.00 76 1020.6
20260830234902 79 310 3.0 5.0 0.00 0.00 0.00 77 1020.6
20260830234357 80 225 0.0 0.0 0.00 0.00 0.00 77 1020.3
20260830233853 80 225 0.0 0.0 0.00 0.00 0.00 76 1020.6
20260830233348 80 225 0.0 0.0 0.00 0.00 0.00 73 1020.3
20260830232844 81 225 0.0 0.0 0.00 0.00 0.00 73 1020.6
20260830232339 81 225 0.0 0.0 0.00 0.00 0.00 72 1020.6
20260830231836 82 225 2.0 2.0 0.00 0.00 0.00 72 1020.6
20260830231336 83 225 0.0 2.0 0.00 0.00 0.00 65 1020.6
20260830230836 84 225 2.0 3.0 0.00 0.00 0.00 63 1020.6
20260830230331 85 225 2.0 3.0 0.00 0.00 0.00 61 1020.3
20260830225825 86 225 4.0 6.0 0.00 0.00 0.00 58 1020.6
20260830225321 86 225 3.0 4.0 0.00 0.00 0.00 59 1020.6
20260830224820 86 225 2.0 3.0 0.00 0.00 0.00 57 1020.6
20260830224315 86 233 5.0 6.0 0.00 0.00 0.00 58 1020.3
20260830223812 86 235 5.0 7.0 0.00 0.00 0.00 58 1020.3
20260830223308 87 239 4.0 6.0 0.00 0.00 0.00 58 1020.3
20260830222807 87 221 5.0 9.0 0.00 0.00 0.00 56 1020.3
20260830222306 87 247 5.0 7.0 0.00 0.00 0.00 56 1020.3
20260830221758 88 243 6.0 8.0 0.00 0.00 0.00 56 1020.3
20260830221255 88 246 3.0 4.0 0.00 0.00 0.00 55 1020.0
20260830220749 88 246 2.0 3.0 0.00 0.00 0.00 56 1020.3
20260830220248 88 217 7.0 10.0 0.00 0.00 0.00 56 1020.3
20260830215747 88 217 5.0 9.0 0.00 0.00 0.00 57 1020.0
20260830215242 88 262 6.0 8.0 0.00 0.00 0.00 57 1020.0
20260830214737 88 227 5.0 7.0 0.00 0.00 0.00 56 1020.3
20260830214237 89 231 7.0 9.0 0.00 0.00 0.00 55 1020.3
20260830213736 88 174 4.0 8.0 0.00 0.00 0.00 55 1020.0
20260830213231 88 243 0.0 2.0 0.00 0.00 0.00 56 1020.0
20260830212727 89 178 4.0 6.0 0.00 0.00 0.00 55 1020.0
20260830212223 89 179 3.0 5.0 0.00 0.00 0.00 55 1020.0
20260830211718 89 248 0.0 2.0 0.00 0.00 0.00 55 1020.0
20260830211217 89 234 7.0 9.0 0.00 0.00 0.00 55 1020.0
20260830210713 89 251 8.0 10.0 0.00 0.00 0.00 54 1020.0
20260830210212 89 247 7.0 10.0 0.00 0.00 0.00 54 1020.3
20260830205709 89 222 2.0 4.0 0.00 0.00 0.00 55 1020.3
20260830205205 89 202 4.0 7.0 0.00 0.00 0.00 54 1020.0
20260830204704 90 188 3.0 7.0 0.00 0.00 0.00 53 1020.0
20260830204203 90 224 2.0 4.0 0.00 0.00 0.00 55 1020.0
20260830203659 90 284 5.0 9.0 0.00 0.00 0.00 54 1020.0
20260830203154 89 247 6.0 9.0 0.00 0.00 0.00 54 1020.0
20260830202654 90 255 8.0 10.0 0.00 0.00 0.00 53 1020.0
20260830202149 91 159 4.0 8.0 0.00 0.00 0.00 54 1020.0
20260830201643 90 221 2.0 7.0 0.00 0.00 0.00 54 1020.0
20260830201138 90 210 5.0 6.0 0.00 0.00 0.00 55 1020.0
20260830200633 90 210 6.0 9.0 0.00 0.00 0.00 54 1020.0
20260830200133 90 233 7.0 11.0 0.00 0.00 0.00 55 1020.0
20260830195628 90 167 1.0 4.0 0.00 0.00 0.00 54 1020.0
20260830195126 90 171 2.0 5.0 0.00 0.00 0.00 54 1020.3
20260830194626 90 228 7.0 9.0 0.00 0.00 0.00 54 1020.3
20260830194120 89 173 3.0 6.0 0.00 0.00 0.00 53 1020.3
20260830193615 89 188 4.0 6.0 0.00 0.00 0.00 54 1020.3
20260830193109 89 174 4.0 8.0 0.00 0.00 0.00 55 1020.6
20260830192600 89 242 8.0 12.0 0.00 0.00 0.00 56 1020.6
20260830192059 89 230 6.0 9.0 0.00 0.00 0.00 54 1020.6
20260830191554 89 195 6.0 13.0 0.00 0.00 0.00 55 1020.6
20260830191050 89 237 6.0 10.0 0.00 0.00 0.00 56 1020.6
20260830190545 89 179 4.0 8.0 0.00 0.00 0.00 55 1020.6
20260830190040 89 255 4.0 8.0 0.00 0.00 0.00 58 1021.0
20260830185533 89 241 7.0 11.0 0.00 0.00 0.00 56 1021.0
20260830185030 89 221 6.0 8.0 0.00 0.00 0.00 56 1021.0
20260830184528 89 234 5.0 8.0 0.00 0.00 0.00 57 1021.3
20260830184023 88 266 4.0 7.0 0.00 0.00 0.00 59 1021.3
20260830183517 88 226 6.0 9.0 0.00 0.00 0.00 58 1021.3
20260830183013 88 191 4.0 6.0 0.00 0.00 0.00 59 1021.3
20260830182508 87 252 7.0 11.0 0.00 0.00 0.00 60 1021.7
20260830182004 88 220 8.0 11.0 0.00 0.00 0.00 59 1021.7
20260830181500 88 227 5.0 8.0 0.00 0.00 0.00 61 1021.7
20260830180959 87 195 4.0 7.0 0.00 0.00 0.00 60 1021.7
20260830180454 87 161 4.0 7.0 0.00 0.00 0.00 61 1022.0
20260830175952 87 214 7.0 11.0 0.00 0.00 0.00 61 1022.0
20260830175452 87 221 4.0 7.0 0.00 0.00 0.00 62 1022.0
20260830174942 87 241 7.0 11.0 0.00 0.00 0.00 61 1022.3
20260830174438 86 231 8.0 14.0 0.00 0.00 0.00 61 1022.3
20260830173933 86 203 4.0 6.0 0.00 0.00 0.00 60 1022.3
20260830173429 86 222 2.0 6.0 0.00 0.00 0.00 62 1022.7
20260830172924 86 241 8.0 15.0 0.00 0.00 0.00 61 1022.7
20260830172421 86 216 4.0 5.0 0.00 0.00 0.00 63 1022.7
20260830171916 86 234 4.0 6.0 0.00 0.00 0.00 64 1023.0
20260830171411 86 171 4.0 8.0 0.00 0.00 0.00 63 1023.0
20260830170906 86 114 4.0 5.0 0.00 0.00 0.00 63 1023.0
20260830170405 86 213 3.0 5.0 0.00 0.00 0.00 65 1023.0
20260830165903 86 241 5.0 6.0 0.00 0.00 0.00 66 1023.0
20260830165400 85 233 2.0 3.0 0.00 0.00 0.00 66 1023.3
20260830164856 84 173 2.0 5.0 0.00 0.00 0.00 66 1023.3
20260830164352 85 233 5.0 8.0 0.00 0.00 0.00 66 1023.3
20260830163848 84 217 0.0 2.0 0.00 0.00 0.00 69 1023.7
20260830163343 84 227 6.0 7.0 0.00 0.00 0.00 70 1023.3
20260830162838 84 272 4.0 5.0 0.00 0.00 0.00 68 1024.1
20260830162334 83 179 3.0 7.0 0.00 0.00 0.00 70 1024.1
20260830161834 82 224 4.0 6.0 0.00 0.00 0.00 71 1024.1
20260830161333 82 243 3.0 7.0 0.00 0.00 0.00 72 1024.1
20260830160829 81 224 6.0 9.0 0.00 0.00 0.00 73 1024.5
20260830160324 81 232 5.0 7.0 0.00 0.00 0.00 74 1024.5
20260830155820 81 233 5.0 6.0 0.00 0.00 0.00 74 1024.1
20260830155316 82 248 5.0 6.0 0.00 0.00 0.00 72 1024.5
20260830154816 82 190 4.0 8.0 0.00 0.00 0.00 71 1023.7
20260830154312 83 235 4.0 5.0 0.00 0.00 0.00 72 1024.1
20260830153809 83 254 6.0 9.0 0.00 0.00 0.00 73 1023.7
20260830153304 82 234 7.0 9.0 0.00 0.00 0.00 74 1024.1
20260830152802 81 255 3.0 5.0 0.00 0.00 0.00 74 1024.1
20260830152257 82 244 6.0 9.0 0.00 0.00 0.00 73 1024.1
20260830151757 82 185 5.0 7.0 0.00 0.00 0.00 74 1024.1
20260830151256 81 210 2.0 7.0 0.00 0.00 0.00 74 1024.1
20260830150751 81 135 3.0 5.0 0.00 0.00 0.00 75 1024.1
20260830150251 80 177 3.0 6.0 0.00 0.00 0.00 76 1024.1
20260830145746 79 178 4.0 6.0 0.00 0.00 0.00 77 1024.5
20260830145241 80 173 3.0 5.0 0.00 0.00 0.00 76 1024.5
20260830144736 79 157 2.0 5.0 0.00 0.00 0.00 77 1024.5
20260830144232 80 174 2.0 4.0 0.00 0.00 0.00 77 1024.5
20260830143728 79 266 0.0 0.0 0.00 0.00 0.00 78 1024.5
20260830143226 79 239 5.0 7.0 0.00 0.00 0.00 77 1024.5
20260830142721 79 238 5.0 8.0 0.00 0.00 0.00 77 1024.1
20260830142216 79 169 3.0 9.0 0.00 0.00 0.00 80 1024.1
20260830141711 78 128 4.0 6.0 0.00 0.00 0.00 83 1024.1
20260830141206 77 213 2.0 4.0 0.00 0.00 0.00 85 1024.5
20260830140701 77 112 3.0 4.0 0.00 0.00 0.00 85 1024.5
20260830140156 77 257 0.0 0.0 0.00 0.00 0.00 84 1024.5
20260830135651 78 257 3.0 6.0 0.00 0.00 0.00 85 1024.5
20260830135146 77 188 0.0 2.0 0.00 0.00 0.00 85 1024.5
20260830134642 77 188 0.0 0.0 0.00 0.00 0.00 87 1024.5
20260830134137 76 188 1.0 2.0 0.00 0.00 0.00 87 1024.5
20260830133633 75 188 0.0 2.0 0.00 0.00 0.00 89 1024.8
20260830133128 74 285 0.0 0.0 0.00 0.00 0.00 91 1024.8
20260830132624 74 310 0.0 0.0 0.00 0.00 0.00 92 1024.8
20260830132120 73 310 0.0 0.0 0.00 0.00 0.00 92 1024.8
20260830131619 73 310 0.0 0.0 0.00 0.00 0.00 93 1025.1
20260830131114 72 310 0.0 0.0 0.00 0.00 0.00 94 1025.1
20260830130613 72 310 0.0 0.0 0.00 0.00 0.00 95 1025.1
20260830130108 72 310 0.0 0.0 0.00 0.00 0.00 95 1025.1
20260830125603 72 310 0.0 0.0 0.00 0.00 0.00 95 1025.1
20260830125102 72 310 0.0 0.0 0.00 0.00 0.00 95 1025.1
20260830124601 71 310 0.0 0.0 0.00 0.00 0.00 96 1025.1
20260830124057 71 310 0.0 0.0 0.00 0.00 0.00 97 1025.1
20260830123554 71 310 0.0 0.0 0.00 0.00 0.00 98 1025.1
20260830123049 71 310 0.0 0.0 0.00 0.00 0.00 98 1025.1
20260830122546 70 310 0.0 0.0 0.00 0.00 0.00 98 1025.1
20260830122042 70 310 0.0 0.0 0.00 0.00 0.00 98 1025.1
20260830121537 70 310 0.0 0.0 0.00 0.00 0.00 99 1025.1
20260830121036 70 310 0.0 0.0 0.00 0.00 0.00 99 1025.1
20260830120532 70 310 0.0 0.0 0.00 0.00 0.00 99 1025.1
20260830120029 69 310 0.0 0.0 0.00 0.00 0.00 99 1025.1
20260830115524 69 310 0.0 0.0 0.00 0.00 0.00 100 1025.1
20260830115024 69 310 0.0 0.0 0.00 0.00 0.00 100 1025.1
20260830114521 68 310 0.0 0.0 0.00 0.00 0.00 100 1025.1
20260830114021 68 310 0.0 0.0 0.00 0.00 0.00 100 1025.1
20260830113521 68 310 0.0 0.0 0.00 0.00 0.00 100 1025.1
20260830113017 68 310 0.0 0.0 0.00 0.00 0.00 99 1025.1
20260830112513 68 310 0.0 0.0 0.00 0.00 0.00 99 1024.8
20260830112009 68 310 0.0 0.0 0.00 0.00 0.00 99 1024.8
20260830111504 68 310 0.0 0.0 0.00 0.00 0.00 99 1024.8
20260830111000 68 310 0.0 0.0 0.00 0.00 0.00 99 1024.8
20260830110454 68 310 0.0 0.0 0.00 0.00 0.00 99 1024.8
20260830105954 68 310 0.0 0.0 0.00 0.00 0.00 99 1024.8
20260830105450 68 310 0.0 0.0 0.00 0.00 0.00 99 1024.8
20260830104946 68 310 0.0 0.0 0.00 0.00 0.00 99 1024.5
20260830104442 68 310 0.0 0.0 0.00 0.00 0.00 99 1024.5
20260830103937 68 310 0.0 0.0 0.00 0.00 0.00 99 1024.5
20260830103433 69 310 0.0 0.0 0.00 0.00 0.00 99 1024.5
20260830102931 69 310 0.0 0.0 0.00 0.00 0.00 99 1024.5
20260830102426 69 310 0.0 0.0 0.00 0.00 0.00 99 1024.5
20260830101923 69 310 0.0 0.0 0.00 0.00 0.00 99 1024.5
20260830101418 69 310 0.0 0.0 0.00 0.00 0.00 99 1024.5
20260830100917 69 310 0.0 0.0 0.00 0.00 0.00 99 1024.5
20260830100416 68 310 0.0 0.0 0.00 0.00 0.00 99 1024.5
20260830095915 68 310 0.0 0.0 0.00 0.00 0.00 99 1024.5
20260830095411 68 310 0.0 0.0 0.00 0.00 0.00 99 1024.5
20260830094908 68 310 0.0 0.0 0.00 0.00 0.00 99 1024.5
20260830094358 68 310 0.0 0.0 0.00 0.00 0.00 99 1024.5
20260830093848 68 310 0.0 0.0 0.00 0.00 0.00 99 1024.5
20260830093343 69 310 0.0 0.0 0.00 0.00 0.00 99 1024.1
20260830092838 69 310 0.0 0.0 0.00 0.00 0.00 99 1024.5
20260830092334 69 310 0.0 0.0 0.00 0.00 0.00 98 1024.1
20260830091831 69 310 0.0 0.0 0.00 0.00 0.00 98 1024.5
20260830091330 70 310 0.0 0.0 0.00 0.00 0.00 98 1024.1
20260830090829 70 310 0.0 0.0 0.00 0.00 0.00 98 1024.5
20260830090324 70 310 0.0 0.0 0.00 0.00 0.00 98 1024.5
20260830085824 70 310 0.0 0.0 0.00 0.00 0.00 97 1024.5
20260830085319 71 310 0.0 0.0 0.00 0.00 0.00 97 1024.5
20260830084815 71 310 0.0 0.0 0.00 0.00 0.00 97 1024.5
20260830084310 71 310 0.0 0.0 0.00 0.00 0.00 98 1024.1
20260830083805 71 310 0.0 0.0 0.00 0.00 0.00 98 1024.1
20260830083301 71 310 0.0 0.0 0.00 0.00 0.00 98 1024.1
20260830082800 71 310 0.0 0.0 0.00 0.00 0.00 97 1024.5